Weather in Nysh

Russia / Sakhalin District     51°32′07″N   142°45′19″E
temp.,
°C
wind,
m/s
gust,
m/s
humid.,
%
clouds,
%
prec.,
mm/h
press.,
hPa
HPBL,
m
12 april, mon
mon1223:00+1sw378999 0.2 1017125
02:00+2sw31189100 0.0 1016304
05:00+2sw3891100 0.0 1017218
08:000n2399100 0.1 1019204
11:00−1n2287100 0.2 1020377
14:00+2ene1175100 0.0 1019753
17:00+1e4479100 0.1 1017642
20:00−3e51194100 0.8 1017624
13 april, tue
tue1323:00−3e61296100 5.2 1016677
02:00−4e61296100 6.1 1013667
05:00−4e61195100 10.6 1012605
08:00−5e61395100 2.6 1009642
11:00−4e61295100 5.2 1008688
14:00−3e61195100 2.3 1005709
17:00−3ene61195100 4.7 1003667
20:00−3ene51096100 3.2 1001629
14 april, wed
wed1423:00−4ne41096100 5.8 998536
02:00−4nne41096100 2.0 994533
05:00−4nnw41096100 5.6 992621
08:00−5w51095100 1.6 993606
11:00−6wnw71291100 2.8 995921
14:00−3wnw61089100 0.8 9971306
17:00−4w71185100 1.4 10001291
20:00−6w5118987 0.3 1004874
15 april, thu
thu1523:00−7w4108991 0.5 1007615
02:00−12sw249682 0.0 100960
05:00−11sw2592100 0.0 101178
08:00−8ssw258981 0.0 1013121
11:00−2sw577349 0.0 10131011
14:00−1wsw577640 0.0 1014974
17:00−1wsw47772 0.0 1016744
20:00−4wsw25865 0.0 101783
16 april, fri
fri1623:00−9sw28885 0.0 1018103
02:00−10ssw35895 0.0 101976
05:00−10ssw36885 0.0 101975
08:00−6ssw26845 0.0 1020124
11:00+1s24845 0.0 1019411
14:00+3s368694 0.0 1018889
17:00+3e2593100 0.0 1016176
20:00+1ese2395100 0.0 101584